Climatologie pour Saint-Brevin les Pins
Jour • Résumé pour juillet 26, 2017 Système :  Métrique    Anglais   Mixte
« - 1 jour
+ 1 jour »
Jour Semaine Mois Année Personnalisé
  Maximum : Minimum : Moyenne :
Température sous abri : 21.1 °C 17.3 °C 18.4 °C
Point de rosée : 19.2 °C 15.6 °C 17.4 °C
Humidité : 98 % 85 % 94 %
Vitesse du vent : 22.5 km/h 0.0 km/h 7.9 km/h
Rafale : 29.0 km/h - -
Direction :- - West
Pression : 1016.5 hPa 1012.4 hPa -
Précipitations : 5.1 mm    
Historical Graphs
 
 
Tableau de données pour juillet 26, 2017
Heure Tempé Pt rosée Pression Vent Vitesse Rafale Humidité Taux pluie (/hr) Soleil
00:00 17.3 °C 15.6 °C 1016.5 hPa WNW 6.4 km/h 17.7 km/h 90 % 0.0 mm 0 W/m2
00:05 17.3 °C 15.6 °C 1016.5 hPa WNW 3.2 km/h 17.7 km/h 90 % 0.0 mm 0 W/m2
00:10 17.3 °C 15.7 °C 1016.5 hPa NW 11.3 km/h 19.3 km/h 90 % 0.0 mm 0 W/m2
00:15 17.4 °C 15.7 °C 1016.5 hPa WNW 4.8 km/h 19.3 km/h 90 % 0.0 mm 0 W/m2
00:20 17.4 °C 15.7 °C 1016.5 hPa WNW 3.2 km/h 14.5 km/h 90 % 0.0 mm 0 W/m2
00:25 17.4 °C 15.8 °C 1016.5 hPa WNW 1.6 km/h 14.5 km/h 90 % 0.0 mm 0 W/m2
00:30 17.5 °C 15.8 °C 1016.5 hPa WNW 4.8 km/h 14.5 km/h 90 % 0.0 mm 0 W/m2
00:35 17.6 °C 15.9 °C 1016.5 hPa NW 6.4 km/h 12.9 km/h 90 % 0.0 mm 0 W/m2
00:40 17.6 °C 16.0 °C 1016.5 hPa WNW 3.2 km/h 14.5 km/h 90 % 0.0 mm 0 W/m2
00:45 17.6 °C 16.0 °C 1016.5 hPa WNW 3.2 km/h 14.5 km/h 90 % 0.0 mm 0 W/m2
00:50 17.6 °C 15.9 °C 1016.1 hPa West 11.3 km/h 12.9 km/h 90 % 0.0 mm 0 W/m2
00:55 17.6 °C 15.9 °C 1016.5 hPa WNW 4.8 km/h 16.1 km/h 90 % 0.0 mm 0 W/m2
01:00 17.6 °C 15.9 °C 1016.1 hPa West 1.6 km/h 16.1 km/h 90 % 0.0 mm 0 W/m2
01:05 17.6 °C 16.0 °C 1016.1 hPa West 4.8 km/h 12.9 km/h 90 % 0.0 mm 0 W/m2
01:10 17.6 °C 16.0 °C 1016.1 hPa WNW 8.0 km/h 14.5 km/h 90 % 0.0 mm 0 W/m2
01:15 17.6 °C 16.0 °C 1016.1 hPa West 9.7 km/h 14.5 km/h 90 % 0.0 mm 0 W/m2
01:20 17.6 °C 16.0 °C 1016.1 hPa WNW 8.0 km/h 16.1 km/h 90 % 0.0 mm 0 W/m2
01:25 17.6 °C 15.9 °C 1016.1 hPa WNW 3.2 km/h 16.1 km/h 90 % 0.0 mm 0 W/m2
01:30 17.6 °C 15.9 °C 1016.1 hPa West 6.4 km/h 12.9 km/h 90 % 0.0 mm 0 W/m2
01:35 17.6 °C 15.9 °C 1016.1 hPa WNW 4.8 km/h 11.3 km/h 90 % 0.0 mm 0 W/m2
01:40 17.5 °C 15.8 °C 1016.1 hPa WSW 6.4 km/h 11.3 km/h 90 % 0.0 mm 0 W/m2
01:45 17.5 °C 15.8 °C 1015.8 hPa West 3.2 km/h 11.3 km/h 90 % 0.0 mm 0 W/m2
01:50 17.6 °C 15.9 °C 1015.8 hPa West 3.2 km/h 11.3 km/h 90 % 0.0 mm 0 W/m2
01:55 17.6 °C 15.9 °C 1015.8 hPa WNW 8.0 km/h 11.3 km/h 90 % 0.0 mm 0 W/m2
02:00 17.6 °C 16.1 °C 1015.8 hPa WNW 1.6 km/h 11.3 km/h 91 % 0.0 mm 0 W/m2
02:05 17.6 °C 16.1 °C 1015.8 hPa WNW 3.2 km/h 11.3 km/h 91 % 0.0 mm 0 W/m2
02:10 17.7 °C 16.2 °C 1015.8 hPa WSW 8.0 km/h 12.9 km/h 91 % 0.0 mm 0 W/m2
02:15 17.7 °C 16.0 °C 1015.5 hPa West 8.0 km/h 12.9 km/h 90 % 0.0 mm 0 W/m2
02:20 17.7 °C 16.0 °C 1015.5 hPa Calm   14.5 km/h 90 % 0.0 mm 0 W/m2
02:25 17.7 °C 16.1 °C 1015.5 hPa West 1.6 km/h 14.5 km/h 90 % 0.0 mm 0 W/m2
02:30 17.8 °C 16.1 °C 1015.5 hPa WSW 4.8 km/h 12.9 km/h 90 % 0.0 mm 0 W/m2
02:35 17.8 °C 16.1 °C 1015.5 hPa West 3.2 km/h 14.5 km/h 90 % 0.0 mm 0 W/m2
02:40 17.8 °C 16.1 °C 1015.5 hPa Calm   14.5 km/h 90 % 0.0 mm 0 W/m2
02:45 17.8 °C 16.2 °C 1015.1 hPa WNW 3.2 km/h 9.7 km/h 90 % 0.0 mm 0 W/m2
02:50 17.8 °C 16.2 °C 1015.5 hPa West 1.6 km/h 12.9 km/h 90 % 0.0 mm 0 W/m2
02:55 17.9 °C 16.2 °C 1015.1 hPa West 4.8 km/h 12.9 km/h 90 % 0.0 mm 0 W/m2
03:00 17.9 °C 16.2 °C 1015.1 hPa WSW 4.8 km/h 12.9 km/h 90 % 0.0 mm 0 W/m2
03:05 17.9 °C 16.3 °C 1015.1 hPa WSW 1.6 km/h 12.9 km/h 90 % 0.0 mm 0 W/m2
03:10 17.9 °C 16.3 °C 1015.1 hPa West 9.7 km/h 12.9 km/h 90 % 0.0 mm 0 W/m2
03:15 18.0 °C 16.3 °C 1015.1 hPa West 4.8 km/h 12.9 km/h 90 % 0.0 mm 0 W/m2
03:20 18.1 °C 16.4 °C 1014.8 hPa WSW 6.4 km/h 12.9 km/h 90 % 0.0 mm 0 W/m2
03:25 18.1 °C 16.4 °C 1014.8 hPa West 4.8 km/h 12.9 km/h 90 % 0.0 mm 0 W/m2
03:30 18.1 °C 16.4 °C 1014.8 hPa SW 9.7 km/h 12.9 km/h 90 % 0.0 mm 0 W/m2
03:35 18.1 °C 16.6 °C 1014.8 hPa SW 8.0 km/h 12.9 km/h 91 % 0.0 mm 0 W/m2
03:40 18.1 °C 16.6 °C 1014.8 hPa SW 1.6 km/h 16.1 km/h 91 % 0.0 mm 0 W/m2
03:45 18.1 °C 16.6 °C 1014.8 hPa West 6.4 km/h 16.1 km/h 91 % 0.0 mm 0 W/m2
03:50 18.1 °C 16.6 °C 1014.8 hPa SW 9.7 km/h 11.3 km/h 91 % 0.0 mm 0 W/m2
03:55 18.1 °C 16.6 °C 1014.4 hPa SSW 4.8 km/h 12.9 km/h 91 % 0.0 mm 0 W/m2
04:00 18.1 °C 16.6 °C 1014.8 hPa SW 6.4 km/h 16.1 km/h 91 % 0.0 mm 0 W/m2
04:05 18.2 °C 16.7 °C 1014.4 hPa SW 4.8 km/h 16.1 km/h 91 % 0.0 mm 0 W/m2
04:10 18.2 °C 16.8 °C 1014.4 hPa WSW 6.4 km/h 14.5 km/h 92 % 0.0 mm 0 W/m2
04:15 18.2 °C 16.8 °C 1014.4 hPa SSW 4.8 km/h 14.5 km/h 92 % 0.0 mm 0 W/m2
04:20 18.2 °C 16.8 °C 1014.4 hPa SW 12.9 km/h 12.9 km/h 92 % 0.0 mm 0 W/m2
04:25 18.2 °C 16.8 °C 1014.4 hPa SW 8.0 km/h 17.7 km/h 92 % 0.0 mm 0 W/m2
04:30 18.1 °C 17.0 °C 1014.4 hPa WSW 6.4 km/h 17.7 km/h 93 % 0.0 mm 0 W/m2
04:35 18.1 °C 17.0 °C 1014.1 hPa WSW 9.7 km/h 14.5 km/h 93 % 0.0 mm 0 W/m2
04:40 18.1 °C 16.9 °C 1014.1 hPa WNW 6.4 km/h 12.9 km/h 93 % 0.0 mm 0 W/m2
04:45 18.1 °C 16.9 °C 1014.1 hPa WSW 1.6 km/h 12.9 km/h 93 % 0.0 mm 0 W/m2
04:55 18.0 °C 17.0 °C 1014.1 hPa SW 6.4 km/h 12.9 km/h 94 % 0.0 mm 0 W/m2
05:00 17.9 °C 17.0 °C 1014.1 hPa West 1.6 km/h 12.9 km/h 94 % 0.0 mm 0 W/m2
05:05 17.9 °C 17.0 °C 1013.8 hPa WSW 17.7 km/h 17.7 km/h 94 % 0.0 mm 0 W/m2
05:10 17.9 °C 17.1 °C 1013.8 hPa WSW 6.4 km/h 17.7 km/h 95 % 0.0 mm 0 W/m2
05:15 17.8 °C 17.0 °C 1013.8 hPa WSW 9.7 km/h 17.7 km/h 95 % 0.3 mm 0 W/m2
05:20 17.8 °C 17.0 °C 1013.8 hPa SW 6.4 km/h 14.5 km/h 95 % 0.3 mm 0 W/m2
05:25 17.8 °C 17.0 °C 1013.8 hPa WNW 6.4 km/h 11.3 km/h 95 % 0.5 mm 0 W/m2
05:30 17.8 °C 17.0 °C 1013.8 hPa SW 9.7 km/h 12.9 km/h 95 % 0.5 mm 0 W/m2
05:35 17.8 °C 17.0 °C 1013.8 hPa West 8.0 km/h 12.9 km/h 95 % 0.8 mm 0 W/m2
05:40 17.8 °C 17.1 °C 1013.8 hPa Calm   11.3 km/h 96 % 1.5 mm 0 W/m2
05:45 17.8 °C 17.1 °C 1013.8 hPa West 8.0 km/h 12.9 km/h 96 % 2.0 mm 0 W/m2
05:50 17.7 °C 17.1 °C 1013.8 hPa WSW 9.7 km/h 12.9 km/h 96 % 2.3 mm 0 W/m2
05:55 17.7 °C 17.0 °C 1013.8 hPa WNW 1.6 km/h 14.5 km/h 96 % 2.3 mm 0 W/m2
06:00 17.6 °C 17.0 °C 1013.8 hPa Calm   14.5 km/h 96 % 2.3 mm 0 W/m2
06:05 17.6 °C 17.0 °C 1013.8 hPa West 11.3 km/h 19.3 km/h 96 % 2.3 mm 0 W/m2
06:10 17.6 °C 17.0 °C 1013.8 hPa SW 4.8 km/h 19.3 km/h 96 % 2.3 mm 0 W/m2
06:15 17.6 °C 16.9 °C 1013.8 hPa WSW 8.0 km/h 14.5 km/h 96 % 2.3 mm 0 W/m2
06:20 17.6 °C 16.9 °C 1013.4 hPa WSW 4.8 km/h 14.5 km/h 96 % 2.3 mm 0 W/m2
06:25 17.6 °C 17.1 °C 1013.8 hPa WSW 4.8 km/h 12.9 km/h 97 % 2.0 mm 0 W/m2
06:30 17.6 °C 17.1 °C 1013.8 hPa West 4.8 km/h 14.5 km/h 97 % 2.0 mm 0 W/m2
06:35 17.6 °C 17.1 °C 1013.8 hPa WSW 14.5 km/h 19.3 km/h 97 % 1.5 mm 0 W/m2
06:40 17.6 °C 17.1 °C 1013.8 hPa WNW 8.0 km/h 19.3 km/h 97 % 0.8 mm 0 W/m2
06:45 17.6 °C 17.1 °C 1013.8 hPa WNW 17.7 km/h 17.7 km/h 97 % 0.5 mm 0 W/m2
06:50 17.6 °C 17.1 °C 1013.4 hPa Calm   17.7 km/h 97 % 0.5 mm 0 W/m2
06:55 17.6 °C 17.1 °C 1013.4 hPa WSW 3.2 km/h 17.7 km/h 97 % 0.3 mm 0 W/m2
07:00 17.5 °C 17.0 °C 1013.4 hPa WSW 9.7 km/h 17.7 km/h 97 % 0.3 mm 0 W/m2
07:05 17.6 °C 17.1 °C 1013.4 hPa West 3.2 km/h 17.7 km/h 97 % 0.3 mm 7 W/m2
07:10 17.5 °C 17.0 °C 1013.4 hPa WSW 4.8 km/h 14.5 km/h 97 % 0.3 mm 9 W/m2
07:15 17.6 °C 17.1 °C 1013.4 hPa West 8.0 km/h 16.1 km/h 97 % 0.5 mm 14 W/m2
07:20 17.6 °C 17.1 °C 1013.4 hPa WNW 3.2 km/h 17.7 km/h 97 % 0.5 mm 14 W/m2
07:25 17.7 °C 17.2 °C 1013.4 hPa West 4.8 km/h 17.7 km/h 97 % 0.5 mm 11 W/m2
07:30 17.7 °C 17.2 °C 1013.4 hPa WSW 4.8 km/h 12.9 km/h 97 % 0.5 mm 9 W/m2
07:35 17.7 °C 17.2 °C 1013.4 hPa WNW 1.6 km/h 12.9 km/h 97 % 0.5 mm 5 W/m2
07:40 17.8 °C 17.3 °C 1013.4 hPa WNW 11.3 km/h 12.9 km/h 97 % 0.5 mm 9 W/m2
07:45 17.8 °C 17.3 °C 1013.4 hPa NW 3.2 km/h 19.3 km/h 97 % 0.5 mm 12 W/m2
07:50 17.8 °C 17.3 °C 1013.4 hPa West 9.7 km/h 19.3 km/h 97 % 0.3 mm 14 W/m2
07:55 17.8 °C 17.3 °C 1013.4 hPa WNW 3.2 km/h 19.3 km/h 97 % 0.3 mm 12 W/m2
08:00 17.8 °C 17.5 °C 1013.4 hPa West 12.9 km/h 22.5 km/h 98 % 0.3 mm 12 W/m2
08:05 17.8 °C 17.5 °C 1013.4 hPa WNW 4.8 km/h 22.5 km/h 98 % 0.3 mm 16 W/m2
08:10 17.8 °C 17.5 °C 1013.4 hPa WNW 8.0 km/h 16.1 km/h 98 % 0.3 mm 23 W/m2
08:15 17.8 °C 17.5 °C 1013.4 hPa Calm   20.9 km/h 98 % 0.3 mm 21 W/m2
08:20 17.8 °C 17.5 °C 1013.4 hPa WNW 12.9 km/h 25.7 km/h 98 % 0.5 mm 19 W/m2
08:25 17.8 °C 17.5 °C 1013.4 hPa NW 6.4 km/h 25.7 km/h 98 % 0.5 mm 16 W/m2
08:30 17.8 °C 17.5 °C 1013.4 hPa West 4.8 km/h 24.1 km/h 98 % 0.5 mm 26 W/m2
08:35 17.8 °C 17.5 °C 1013.4 hPa SW 11.3 km/h 24.1 km/h 98 % 0.5 mm 30 W/m2
08:40 17.8 °C 17.5 °C 1013.4 hPa WNW 9.7 km/h 19.3 km/h 98 % 0.5 mm 25 W/m2
08:45 17.9 °C 17.6 °C 1013.8 hPa West 8.0 km/h 19.3 km/h 98 % 0.5 mm 37 W/m2
08:50 17.9 °C 17.6 °C 1013.8 hPa WNW 6.4 km/h 25.7 km/h 98 % 0.5 mm 49 W/m2
08:55 17.9 °C 17.6 °C 1013.8 hPa WSW 9.7 km/h 25.7 km/h 98 % 0.8 mm 42 W/m2
09:00 17.9 °C 17.6 °C 1013.8 hPa WNW 9.7 km/h 22.5 km/h 98 % 0.8 mm 54 W/m2
09:05 18.0 °C 17.7 °C 1013.8 hPa West 3.2 km/h 22.5 km/h 98 % 0.8 mm 39 W/m2
09:10 17.9 °C 17.6 °C 1013.8 hPa WNW 8.0 km/h 17.7 km/h 98 % 0.8 mm 56 W/m2
09:15 18.0 °C 17.7 °C 1013.8 hPa NW 4.8 km/h 17.7 km/h 98 % 0.5 mm 44 W/m2
09:20 18.0 °C 17.7 °C 1013.8 hPa West 12.9 km/h 16.1 km/h 98 % 0.5 mm 42 W/m2
09:25 18.0 °C 17.7 °C 1013.8 hPa West 8.0 km/h 20.9 km/h 98 % 0.5 mm 49 W/m2
09:30 18.0 °C 17.7 °C 1013.8 hPa West 4.8 km/h 22.5 km/h 98 % 0.5 mm 39 W/m2
09:35 17.9 °C 17.6 °C 1013.8 hPa West 12.9 km/h 22.5 km/h 98 % 0.3 mm 33 W/m2
09:40 17.9 °C 17.6 °C 1013.8 hPa West 6.4 km/h 14.5 km/h 98 % 0.3 mm 39 W/m2
09:45 17.9 °C 17.6 °C 1013.8 hPa West 12.9 km/h 22.5 km/h 98 % 0.3 mm 39 W/m2
09:50 17.9 °C 17.6 °C 1013.8 hPa WNW 9.7 km/h 22.5 km/h 98 % 0.3 mm 46 W/m2
09:55 17.9 °C 17.6 °C 1013.8 hPa West 4.8 km/h 22.5 km/h 98 % 0.3 mm 53 W/m2
10:00 18.0 °C 17.7 °C 1013.8 hPa WNW 6.4 km/h 22.5 km/h 98 % 0.3 mm 69 W/m2
10:05 18.1 °C 17.7 °C 1013.8 hPa WNW 8.0 km/h 20.9 km/h 98 % 0.3 mm 72 W/m2
10:10 18.1 °C 17.7 °C 1013.8 hPa West 9.7 km/h 20.9 km/h 98 % 0.3 mm 95 W/m2
10:15 18.1 °C 17.8 °C 1013.8 hPa WNW 9.7 km/h 29.0 km/h 98 % 0.3 mm 107 W/m2
10:20 18.2 °C 17.8 °C 1013.8 hPa WNW 6.4 km/h 29.0 km/h 98 % 0.3 mm 172 W/m2
10:25 18.2 °C 17.9 °C 1013.8 hPa WSW 14.5 km/h 19.3 km/h 98 % 0.3 mm 137 W/m2
10:30 18.3 °C 18.0 °C 1013.8 hPa West 11.3 km/h 19.3 km/h 98 % 0.3 mm 116 W/m2
10:35 18.2 °C 17.9 °C 1013.8 hPa West 1.6 km/h 20.9 km/h 98 % 0.3 mm 153 W/m2
10:40 18.4 °C 18.1 °C 1013.8 hPa WSW 12.9 km/h 20.9 km/h 98 % 0.3 mm 218 W/m2
10:45 18.3 °C 18.0 °C 1013.8 hPa West 4.8 km/h 20.9 km/h 98 % 0.3 mm 130 W/m2
10:50 18.3 °C 18.0 °C 1013.8 hPa NW 11.3 km/h 22.5 km/h 98 % 0.3 mm 144 W/m2
10:55 18.4 °C 18.1 °C 1013.8 hPa West 9.7 km/h 22.5 km/h 98 % 0.0 mm 118 W/m2
11:00 18.4 °C 17.9 °C 1013.8 hPa West 8.0 km/h 20.9 km/h 97 % 0.0 mm 174 W/m2
11:05 18.5 °C 18.2 °C 1013.8 hPa WNW 4.8 km/h 20.9 km/h 98 % 0.0 mm 163 W/m2
11:10 18.4 °C 18.0 °C 1013.8 hPa WNW 9.7 km/h 19.3 km/h 97 % 0.0 mm 141 W/m2
11:15 18.3 °C 17.8 °C 1013.8 hPa WNW 16.1 km/h 19.3 km/h 97 % 0.0 mm 107 W/m2
11:20 18.3 °C 17.8 °C 1013.8 hPa WNW 4.8 km/h 20.9 km/h 97 % 0.0 mm 116 W/m2
11:25 18.3 °C 17.8 °C 1013.8 hPa West 1.6 km/h 20.9 km/h 97 % 0.0 mm 93 W/m2
11:30 18.3 °C 17.8 °C 1013.8 hPa WNW 11.3 km/h 19.3 km/h 97 % 0.0 mm 127 W/m2
11:40 18.3 °C 17.8 °C 1013.8 hPa WNW 11.3 km/h 22.5 km/h 97 % 0.0 mm 151 W/m2
11:45 18.3 °C 17.8 °C 1013.8 hPa West 9.7 km/h 22.5 km/h 97 % 0.0 mm 156 W/m2
11:50 18.3 °C 17.8 °C 1013.8 hPa West 12.9 km/h 25.7 km/h 97 % 0.0 mm 174 W/m2
11:55 18.5 °C 18.0 °C 1013.8 hPa WSW 4.8 km/h 25.7 km/h 97 % 0.0 mm 220 W/m2
12:00 18.6 °C 18.1 °C 1013.8 hPa West 14.5 km/h 19.3 km/h 97 % 0.0 mm 258 W/m2
12:05 18.6 °C 18.1 °C 1013.8 hPa WNW 6.4 km/h 19.3 km/h 97 % 0.0 mm 202 W/m2
12:10 18.7 °C 18.2 °C 1013.8 hPa WNW 3.2 km/h 17.7 km/h 97 % 0.0 mm 169 W/m2
12:15 18.7 °C 18.2 °C 1013.8 hPa WNW 19.3 km/h 19.3 km/h 97 % 0.0 mm 137 W/m2
12:20 18.6 °C 18.0 °C 1013.8 hPa SW 11.3 km/h 19.3 km/h 96 % 0.0 mm 167 W/m2
12:25 18.8 °C 18.3 °C 1013.8 hPa WNW 4.8 km/h 20.9 km/h 97 % 0.0 mm 178 W/m2
12:30 18.7 °C 18.1 °C 1013.8 hPa WSW 4.8 km/h 20.9 km/h 96 % 0.0 mm 160 W/m2
12:35 18.8 °C 18.1 °C 1013.8 hPa WSW 8.0 km/h 20.9 km/h 96 % 0.0 mm 202 W/m2
12:40 18.7 °C 18.0 °C 1013.8 hPa SW 8.0 km/h 20.9 km/h 96 % 0.0 mm 158 W/m2
12:45 18.9 °C 18.4 °C 1013.8 hPa WSW 9.7 km/h 17.7 km/h 97 % 0.0 mm 281 W/m2
12:50 19.0 °C 18.3 °C 1014.1 hPa West 9.7 km/h 25.7 km/h 96 % 0.0 mm 290 W/m2
12:55 19.0 °C 18.3 °C 1013.8 hPa WSW 1.6 km/h 25.7 km/h 96 % 0.0 mm 338 W/m2
13:00 19.1 °C 18.4 °C 1013.8 hPa WNW 9.7 km/h 22.5 km/h 96 % 0.0 mm 281 W/m2
13:05 19.2 °C 18.5 °C 1013.8 hPa West 12.9 km/h 20.9 km/h 96 % 0.0 mm 257 W/m2
13:10 19.1 °C 18.3 °C 1013.8 hPa West 4.8 km/h 20.9 km/h 95 % 0.0 mm 301 W/m2
13:20 19.4 °C 18.6 °C 1013.8 hPa West 22.5 km/h 25.7 km/h 95 % 0.0 mm 258 W/m2
13:25 19.3 °C 18.5 °C 1013.8 hPa West 8.0 km/h 25.7 km/h 95 % 0.0 mm 304 W/m2
13:30 19.3 °C 18.5 °C 1013.8 hPa SSW 4.8 km/h 24.1 km/h 95 % 0.0 mm 199 W/m2
13:35 19.1 °C 18.1 °C 1014.1 hPa WSW 4.8 km/h 25.7 km/h 94 % 0.0 mm 230 W/m2
13:40 19.0 °C 18.2 °C 1014.1 hPa NW 6.4 km/h 25.7 km/h 95 % 0.0 mm 171 W/m2
13:45 18.9 °C 18.1 °C 1014.1 hPa West 12.9 km/h 20.9 km/h 95 % 0.0 mm 311 W/m2
13:50 19.1 °C 18.4 °C 1013.8 hPa WNW 11.3 km/h 20.9 km/h 96 % 0.0 mm 380 W/m2
13:55 19.2 °C 18.5 °C 1013.8 hPa West 6.4 km/h 20.9 km/h 96 % 0.0 mm 253 W/m2
14:00 19.1 °C 18.3 °C 1013.8 hPa WNW 11.3 km/h 22.5 km/h 95 % 0.0 mm 192 W/m2
14:05 19.0 °C 18.2 °C 1013.8 hPa West 11.3 km/h 22.5 km/h 95 % 0.0 mm 185 W/m2
14:15 19.2 °C 18.5 °C 1013.8 hPa West 3.2 km/h 22.5 km/h 96 % 0.0 mm 185 W/m2
14:20 19.2 °C 18.4 °C 1013.8 hPa SW 8.0 km/h 17.7 km/h 95 % 0.0 mm 153 W/m2
14:25 19.2 °C 18.3 °C 1013.8 hPa WSW 6.4 km/h 16.1 km/h 95 % 0.0 mm 160 W/m2
14:30 19.2 °C 18.2 °C 1013.8 hPa WSW 6.4 km/h 20.9 km/h 94 % 0.0 mm 149 W/m2
14:35 19.1 °C 18.1 °C 1013.8 hPa NW 9.7 km/h 20.9 km/h 94 % 0.0 mm 179 W/m2
14:40 18.9 °C 17.9 °C 1013.8 hPa West 6.4 km/h 19.3 km/h 94 % 0.0 mm 185 W/m2
14:45 18.9 °C 18.1 °C 1013.8 hPa WNW 14.5 km/h 19.3 km/h 95 % 0.0 mm 176 W/m2
14:50 18.8 °C 18.0 °C 1013.8 hPa West 12.9 km/h 19.3 km/h 95 % 0.0 mm 162 W/m2
14:55 18.7 °C 18.1 °C 1013.8 hPa West 14.5 km/h 22.5 km/h 96 % 0.0 mm 192 W/m2
15:00 18.8 °C 18.1 °C 1013.8 hPa West 9.7 km/h 22.5 km/h 96 % 0.0 mm 244 W/m2
15:05 19.0 °C 18.2 °C 1013.8 hPa WNW 14.5 km/h 22.5 km/h 95 % 0.0 mm 262 W/m2
15:10 19.1 °C 18.4 °C 1013.8 hPa WNW 1.6 km/h 22.5 km/h 96 % 0.0 mm 306 W/m2
15:15 19.2 °C 18.3 °C 1013.8 hPa WSW 3.2 km/h 20.9 km/h 95 % 0.0 mm 204 W/m2
15:20 19.1 °C 18.1 °C 1013.8 hPa West 6.4 km/h 22.5 km/h 94 % 0.0 mm 232 W/m2
15:25 19.1 °C 18.1 °C 1013.8 hPa West 9.7 km/h 22.5 km/h 94 % 0.0 mm 285 W/m2
15:30 19.2 °C 18.1 °C 1013.8 hPa West 8.0 km/h 22.5 km/h 93 % 0.0 mm 213 W/m2
15:35 19.3 °C 18.1 °C 1013.8 hPa WSW 12.9 km/h 24.1 km/h 93 % 0.0 mm 237 W/m2
15:40 19.3 °C 18.1 °C 1013.8 hPa West 9.7 km/h 27.4 km/h 93 % 0.0 mm 373 W/m2
15:45 19.6 °C 18.2 °C 1013.8 hPa WSW 11.3 km/h 27.4 km/h 92 % 0.0 mm 406 W/m2
15:50 19.9 °C 18.6 °C 1013.8 hPa WNW 9.7 km/h 25.7 km/h 92 % 0.0 mm 350 W/m2
15:55 19.8 °C 18.3 °C 1013.8 hPa WNW 9.7 km/h 19.3 km/h 91 % 0.0 mm 348 W/m2
16:00 19.8 °C 18.3 °C 1013.8 hPa West 8.0 km/h 22.5 km/h 91 % 0.0 mm 211 W/m2
16:05 19.6 °C 18.1 °C 1013.8 hPa West 8.0 km/h 25.7 km/h 91 % 0.0 mm 148 W/m2
16:10 19.5 °C 18.0 °C 1013.8 hPa WNW 12.9 km/h 25.7 km/h 91 % 0.0 mm 169 W/m2
16:15 19.5 °C 18.2 °C 1013.8 hPa WNW 8.0 km/h 20.9 km/h 92 % 0.0 mm 230 W/m2
16:20 19.5 °C 18.2 °C 1013.8 hPa WSW 6.4 km/h 19.3 km/h 92 % 0.0 mm 223 W/m2
16:25 19.6 °C 18.3 °C 1013.8 hPa WNW 9.7 km/h 20.9 km/h 92 % 0.0 mm 269 W/m2
16:30 19.8 °C 18.3 °C 1014.1 hPa West 9.7 km/h 20.9 km/h 91 % 0.0 mm 278 W/m2
16:35 19.8 °C 18.3 °C 1014.1 hPa West 9.7 km/h 24.1 km/h 91 % 0.0 mm 264 W/m2
16:40 19.8 °C 18.3 °C 1014.1 hPa West 8.0 km/h 24.1 km/h 91 % 0.0 mm 276 W/m2
16:45 19.8 °C 18.3 °C 1013.8 hPa WSW 9.7 km/h 20.9 km/h 91 % 0.0 mm 504 W/m2
16:50 20.5 °C 18.6 °C 1013.8 hPa West 16.1 km/h 22.5 km/h 89 % 0.0 mm 410 W/m2
16:55 20.3 °C 18.2 °C 1013.8 hPa WSW 8.0 km/h 22.5 km/h 88 % 0.0 mm 355 W/m2
17:00 20.2 °C 18.3 °C 1013.4 hPa WSW 12.9 km/h 24.1 km/h 89 % 0.0 mm 343 W/m2
17:05 20.3 °C 18.6 °C 1013.4 hPa WSW 9.7 km/h 27.4 km/h 90 % 0.0 mm 907 W/m2
17:10 21.1 °C 19.2 °C 1013.4 hPa WSW 6.4 km/h 27.4 km/h 89 % 0.0 mm 640 W/m2
17:15 20.9 °C 18.3 °C 1013.4 hPa WNW 11.3 km/h 20.9 km/h 85 % 0.0 mm 299 W/m2
17:20 20.3 °C 18.1 °C 1013.4 hPa West 14.5 km/h 27.4 km/h 87 % 0.0 mm 415 W/m2
17:25 20.4 °C 18.0 °C 1013.1 hPa West 6.4 km/h 27.4 km/h 86 % 0.0 mm 255 W/m2
17:30 20.3 °C 18.1 °C 1013.1 hPa West 6.4 km/h 20.9 km/h 87 % 0.0 mm 299 W/m2
17:35 20.3 °C 18.0 °C 1013.4 hPa West 12.9 km/h 19.3 km/h 87 % 0.0 mm 257 W/m2
17:40 20.0 °C 18.0 °C 1013.4 hPa West 6.4 km/h 19.3 km/h 88 % 0.0 mm 171 W/m2
17:50 19.7 °C 17.8 °C 1013.8 hPa WNW 6.4 km/h 24.1 km/h 89 % 0.0 mm 167 W/m2
17:55 19.7 °C 17.8 °C 1013.8 hPa West 12.9 km/h 24.1 km/h 89 % 0.0 mm 169 W/m2
18:00 19.6 °C 17.7 °C 1013.8 hPa WSW 6.4 km/h 19.3 km/h 89 % 0.0 mm 121 W/m2
18:05 19.6 °C 17.7 °C 1013.8 hPa West 9.7 km/h 19.3 km/h 89 % 0.0 mm 97 W/m2
18:10 19.4 °C 17.5 °C 1013.8 hPa WNW 14.5 km/h 19.3 km/h 89 % 0.0 mm 62 W/m2
18:15 19.3 °C 17.4 °C 1013.8 hPa WSW 8.0 km/h 19.3 km/h 89 % 0.0 mm 95 W/m2
18:20 19.2 °C 17.5 °C 1013.8 hPa SW 8.0 km/h 20.9 km/h 90 % 0.0 mm 54 W/m2
18:25 19.1 °C 17.4 °C 1013.4 hPa WSW 6.4 km/h 20.9 km/h 90 % 0.0 mm 74 W/m2
18:30 19.1 °C 17.4 °C 1013.4 hPa West 17.7 km/h 20.9 km/h 90 % 0.0 mm 127 W/m2
18:35 19.2 °C 17.5 °C 1013.4 hPa WSW 12.9 km/h 24.1 km/h 90 % 0.0 mm 111 W/m2
18:40 19.2 °C 17.5 °C 1013.4 hPa West 9.7 km/h 24.1 km/h 90 % 0.0 mm 88 W/m2
18:45 19.2 °C 17.3 °C 1013.1 hPa West 8.0 km/h 20.9 km/h 89 % 0.0 mm 107 W/m2
18:50 19.1 °C 17.4 °C 1013.4 hPa WSW 11.3 km/h 20.9 km/h 90 % 0.0 mm 107 W/m2
18:55 19.2 °C 17.5 °C 1013.4 hPa WSW 6.4 km/h 20.9 km/h 90 % 0.0 mm 114 W/m2
19:00 19.3 °C 17.6 °C 1013.4 hPa WSW 8.0 km/h 22.5 km/h 90 % 0.0 mm 160 W/m2
19:05 19.4 °C 17.8 °C 1013.4 hPa SW 6.4 km/h 22.5 km/h 90 % 0.0 mm 199 W/m2
19:10 19.6 °C 17.7 °C 1013.4 hPa WNW 9.7 km/h 24.1 km/h 89 % 0.0 mm 155 W/m2
19:15 19.4 °C 17.6 °C 1013.4 hPa WSW 8.0 km/h 25.7 km/h 89 % 0.0 mm 90 W/m2
19:20 19.4 °C 17.5 °C 1013.4 hPa WSW 8.0 km/h 25.7 km/h 89 % 0.0 mm 137 W/m2
19:25 19.4 °C 17.5 °C 1013.1 hPa West 8.0 km/h 20.9 km/h 89 % 0.0 mm 116 W/m2
19:30 19.4 °C 17.5 °C 1013.1 hPa WSW 12.9 km/h 20.9 km/h 89 % 0.0 mm 100 W/m2
19:35 19.3 °C 17.4 °C 1013.1 hPa WSW 16.1 km/h 20.9 km/h 89 % 0.0 mm 105 W/m2
19:40 19.3 °C 17.6 °C 1013.1 hPa West 4.8 km/h 20.9 km/h 90 % 0.0 mm 91 W/m2
19:45 19.2 °C 17.5 °C 1013.1 hPa SW 4.8 km/h 17.7 km/h 90 % 0.0 mm 62 W/m2
19:50 19.1 °C 17.4 °C 1013.1 hPa SW 1.6 km/h 17.7 km/h 90 % 0.0 mm 49 W/m2
19:55 19.0 °C 17.5 °C 1013.1 hPa WSW 4.8 km/h 19.3 km/h 91 % 0.0 mm 42 W/m2
20:00 18.9 °C 17.4 °C 1013.1 hPa SSW 9.7 km/h 19.3 km/h 91 % 0.0 mm 30 W/m2
20:05 18.8 °C 17.5 °C 1013.1 hPa WSW 6.4 km/h 25.7 km/h 92 % 0.0 mm 30 W/m2
20:10 18.8 °C 17.5 °C 1013.1 hPa SW 3.2 km/h 25.7 km/h 92 % 0.0 mm 39 W/m2
20:15 18.8 °C 17.5 °C 1013.1 hPa West 6.4 km/h 17.7 km/h 92 % 0.0 mm 35 W/m2
20:20 18.7 °C 17.3 °C 1013.1 hPa WSW 12.9 km/h 27.4 km/h 92 % 0.0 mm 46 W/m2
20:25 18.6 °C 17.2 °C 1013.1 hPa WNW 9.7 km/h 27.4 km/h 92 % 0.0 mm 65 W/m2
20:30 18.4 °C 17.3 °C 1013.1 hPa WSW 9.7 km/h 19.3 km/h 93 % 0.3 mm 44 W/m2
20:35 18.3 °C 17.3 °C 1013.1 hPa West 8.0 km/h 22.5 km/h 94 % 0.3 mm 30 W/m2
20:40 18.2 °C 17.2 °C 1013.1 hPa WNW 8.0 km/h 22.5 km/h 94 % 0.3 mm 19 W/m2
20:45 18.1 °C 17.1 °C 1013.1 hPa WSW 14.5 km/h 22.5 km/h 94 % 0.3 mm 23 W/m2
20:50 18.1 °C 17.2 °C 1012.8 hPa SW 4.8 km/h 20.9 km/h 95 % 0.3 mm 14 W/m2
20:55 18.0 °C 17.2 °C 1013.1 hPa WSW 9.7 km/h 22.5 km/h 95 % 0.3 mm 11 W/m2
21:00 18.0 °C 17.2 °C 1012.8 hPa WSW 16.1 km/h 24.1 km/h 95 % 0.3 mm 12 W/m2
21:05 17.9 °C 17.1 °C 1012.8 hPa WSW 20.9 km/h 24.1 km/h 95 % 0.3 mm 9 W/m2
21:10 17.9 °C 17.1 °C 1012.8 hPa SW 12.9 km/h 20.9 km/h 95 % 0.3 mm 5 W/m2
21:15 17.9 °C 17.3 °C 1012.8 hPa WSW 8.0 km/h 22.5 km/h 96 % 0.3 mm 0 W/m2
21:20 18.0 °C 17.4 °C 1012.8 hPa WNW 6.4 km/h 22.5 km/h 96 % 0.3 mm 0 W/m2
21:25 18.0 °C 17.4 °C 1012.8 hPa WSW 9.7 km/h 24.1 km/h 96 % 0.5 mm 0 W/m2
21:30 18.1 °C 17.4 °C 1012.8 hPa West 8.0 km/h 24.1 km/h 96 % 0.3 mm 0 W/m2
21:35 18.1 °C 17.4 °C 1012.8 hPa WSW 4.8 km/h 22.5 km/h 96 % 0.3 mm 0 W/m2
21:40 18.1 °C 17.4 °C 1012.8 hPa WSW 3.2 km/h 24.1 km/h 96 % 0.3 mm 0 W/m2
21:45 18.1 °C 17.4 °C 1012.8 hPa WSW 12.9 km/h 27.4 km/h 96 % 0.3 mm 0 W/m2
21:50 18.0 °C 17.4 °C 1012.8 hPa WSW 11.3 km/h 27.4 km/h 96 % 0.3 mm 0 W/m2
21:55 18.1 °C 17.4 °C 1012.8 hPa WNW 11.3 km/h 25.7 km/h 96 % 0.5 mm 0 W/m2
22:00 18.1 °C 17.4 °C 1012.8 hPa SW 11.3 km/h 20.9 km/h 96 % 0.5 mm 0 W/m2
22:10 18.1 °C 17.6 °C 1013.1 hPa West 16.1 km/h 22.5 km/h 97 % 0.5 mm 0 W/m2
22:15 18.0 °C 17.5 °C 1013.1 hPa SW 4.8 km/h 22.5 km/h 97 % 0.5 mm 0 W/m2
22:20 18.0 °C 17.5 °C 1013.1 hPa West 14.5 km/h 19.3 km/h 97 % 0.5 mm 0 W/m2
22:25 18.0 °C 17.5 °C 1013.1 hPa SW 4.8 km/h 19.3 km/h 97 % 0.5 mm 0 W/m2
22:30 18.1 °C 17.6 °C 1013.1 hPa WNW 11.3 km/h 24.1 km/h 97 % 0.5 mm 0 W/m2
22:35 18.0 °C 17.5 °C 1013.1 hPa SW 12.9 km/h 24.1 km/h 97 % 0.5 mm 0 W/m2
22:40 18.1 °C 17.6 °C 1012.8 hPa SW 3.2 km/h 20.9 km/h 97 % 0.5 mm 0 W/m2
22:45 18.1 °C 17.6 °C 1012.8 hPa SSW 1.6 km/h 24.1 km/h 97 % 0.5 mm 0 W/m2
22:50 18.1 °C 17.6 °C 1012.8 hPa WSW 6.4 km/h 24.1 km/h 97 % 0.5 mm 0 W/m2
22:55 18.1 °C 17.6 °C 1013.1 hPa WNW 4.8 km/h 29.0 km/h 97 % 0.5 mm 0 W/m2
23:00 18.1 °C 17.6 °C 1012.8 hPa West 22.5 km/h 29.0 km/h 97 % 0.5 mm 0 W/m2
23:05 18.1 °C 17.6 °C 1012.8 hPa West 8.0 km/h 22.5 km/h 97 % 0.5 mm 0 W/m2
23:10 18.1 °C 17.6 °C 1013.1 hPa SW 14.5 km/h 22.5 km/h 97 % 0.5 mm 0 W/m2
23:15 18.2 °C 17.7 °C 1012.8 hPa West 6.4 km/h 22.5 km/h 97 % 0.5 mm 0 W/m2
23:20 18.2 °C 17.7 °C 1012.8 hPa West 4.8 km/h 24.1 km/h 97 % 0.5 mm 0 W/m2
23:25 18.2 °C 17.7 °C 1012.8 hPa West 3.2 km/h 24.1 km/h 97 % 0.5 mm 0 W/m2
23:30 18.2 °C 17.9 °C 1012.8 hPa SW 8.0 km/h 20.9 km/h 98 % 0.3 mm 0 W/m2
23:35 18.3 °C 18.0 °C 1012.8 hPa WSW 14.5 km/h 19.3 km/h 98 % 0.5 mm 0 W/m2
23:40 18.3 °C 18.0 °C 1012.8 hPa WSW 8.0 km/h 19.3 km/h 98 % 0.5 mm 0 W/m2
23:45 18.3 °C 18.0 °C 1012.8 hPa SW 8.0 km/h 16.1 km/h 98 % 0.5 mm 0 W/m2
23:50 18.3 °C 18.0 °C 1012.8 hPa WSW 19.3 km/h 20.9 km/h 98 % 0.5 mm 0 W/m2
23:55 18.3 °C 18.0 °C 1012.4 hPa WSW 8.0 km/h 20.9 km/h 98 % 0.3 mm 0 W/m2
Avec l'autorisation de Weather Underground - 1.75 mb